Theta_e
297 296 295 294 293 292 291 291 290 290 290 289 289 289 289 289 289 289 288 288 288 288 288 288 288 288 287 287 287 287 286 286 285 285 285 285 285 285 285 284 284 284 284 283 283 282 282 281 281 280 279 279 279 278 279 279 279 279 279 279 279 280 280 280 280 281 281 281 281 282 282 282 282 282 283 283 284 285 285 286 288 289 290 291 292
298 296 295 294 293 292 291 290 290 290 289 289 289 289 289 289 289 288 288 288 288 288 288 288 288 287 287 287 286 286 286 285 285 284 284 285 284 284 284 284 284 283 283 283 283 282 282 281 281 280 278 277 277 277 277 278 278 278 278 278 278 278 278 279 279 280 280 280 281 281 281 281 281 282 282 282 282 283 284 285 286 288 290 291 292
298 296 295 293 292 291 291 290 289 289 289 289 289 289 289 288 288 288 288 288 288 288 288 288 287 287 287 286 286 286 285 285 284 284 284 284 284 284 284 284 283 283 283 283 282 282 281 280 280 278 277 276 276 275 276 276 276 276 276 276 277 277 277 277 278 278 279 280 280 280 280 280 280 280 280 280 281 281 282 284 285 286 288 289 290
298 296 294 293 292 291 291 290 289 289 289 289 289 289 288 288 288 288 288 288 288 288 288 287 287 286 286 286 286 285 285 284 284 284 284 284 284 283 283 283 283 283 283 283 283 282 281 280 278 277 275 275 274 274 274 274 274 274 275 275 276 276 276 276 277 278 278 279 279 279 279 279 279 279 279 279 280 281 282 283 285 286 288 288 289
297 295 294 292 291 291 290 290 289 288 288 288 288 288 288 288 288 288 288 288 288 288 287 287 287 286 286 286 285 285 284 284 284 284 283 283 283 283 283 283 283 283 283 283 282 281 280 278 277 276 274 274 273 273 273 273 273 273 274 274 275 275 275 276 276 277 278 278 278 278 278 278 278 278 278 279 281 282 283 284 286 287 288 288 289
297 295 293 292 291 291 290 289 289 288 288 288 288 288 288 288 288 288 288 288 288 287 287 287 286 286 286 285 285 285 284 284 283 283 283 283 283 283 282 282 282 282 282 282 281 280 278 277 276 275 274 273 273 273 273 272 272 272 273 273 274 274 274 275 275 276 277 277 277 277 278 278 278 278 278 279 281 282 283 285 286 288 290 290 291
296 294 292 291 290 290 290 289 288 288 288 288 288 288 288 288 288 288 288 288 287 287 287 287 286 286 286 285 285 284 284 283 283 283 283 283 282 282 282 282 282 282 282 281 281 279 277 276 275 274 274 273 273 273 272 272 272 272 272 273 273 273 274 274 275 275 276 276 277 277 277 277 278 278 278 279 280 281 283 284 285 287 289 290 292
295 293 292 290 290 290 289 289 288 287 288 288 288 288 288 288 288 288 288 287 287 287 287 286 286 286 285 285 284 284 283 283 283 283 282 282 282 281 281 282 282 282 282 281 280 278 276 275 274 273 273 273 273 273 272 272 272 273 273 273 273 274 274 275 275 275 276 276 277 277 277 277 277 278 278 279 281 282 283 285 287 288 289 290 292
294 293 291 290 289 289 289 288 287 287 288 288 288 288 288 288 288 288 288 287 287 287 286 286 286 285 285 284 284 283 283 283 283 282 282 281 281 281 281 281 282 281 281 279 278 276 275 274 273 273 273 273 273 273 273 273 273 274 274 274 274 274 275 275 275 275 276 276 276 277 277 277 277 278 278 280 281 282 284 286 288 289 291 292 292
294 292 291 290 289 289 288 288 287 287 287 287 287 288 288 288 288 288 287 287 287 287 286 286 285 285 285 284 283 283 283 283 282 282 281 281 280 280 281 281 281 280 278 277 276 275 274 273 273 273 273 274 274 274 274 274 275 275 275 275 275 275 275 276 276 276 276 276 277 277 277 277 278 278 279 279 281 282 283 284 286 287 290 293 294
293 291 290 289 289 289 288 287 287 287 287 287 287 288 288 288 288 288 287 287 287 286 286 286 285 285 284 284 283 283 282 282 282 281 281 280 280 280 280 279 279 278 276 275 274 274 274 274 274 274 274 274 274 274 274 275 275 275 275 276 276 276 276 277 277 277 277 277 278 278 278 278 279 279 279 280 281 282 283 283 285 286 289 293 296
292 291 289 289 288 288 288 287 287 287 287 287 288 288 288 288 288 287 287 287 286 286 286 285 285 285 284 283 283 282 282 282 281 281 280 280 280 279 279 278 278 277 275 274 274 273 273 274 273 273 273 273 273 274 274 274 275 275 275 276 276 277 277 278 278 278 278 278 279 279 279 279 279 280 280 280 281 281 282 283 284 285 288 292 294
291 290 289 288 288 288 287 287 287 287 287 287 288 288 288 288 287 287 287 286 286 286 285 285 285 284 283 283 282 282 282 281 281 280 280 280 280 279 278 277 276 276 275 274 274 273 273 273 274 274 274 273 274 274 274 274 274 275 275 275 276 277 277 278 278 278 279 279 279 279 279 280 280 280 280 280 280 281 282 283 284 285 286 289 292
290 289 288 288 288 288 287 287 287 287 287 287 288 288 288 287 287 287 286 286 286 285 285 285 284 284 283 282 282 281 281 280 280 280 280 280 279 279 278 277 275 275 274 274 274 274 273 273 274 274 274 274 274 274 273 274 274 274 274 275 275 275 276 277 277 278 278 279 279 279 279 279 280 280 280 280 280 280 281 281 282 283 285 287 290
290 289 288 288 288 287 287 287 287 287 287 287 288 288 287 287 287 286 286 286 285 285 285 284 284 283 282 282 281 281 280 280 280 279 279 279 279 279 278 277 275 275 274 274 274 274 274 274 274 274 274 274 274 274 274 274 274 274 274 274 275 275 275 276 277 277 278 278 278 279 279 279 279 279 279 280 280 280 280 281 282 283 284 286 287
289 288 288 287 287 287 286 287 287 287 287 287 287 287 287 287 286 286 285 285 285 284 284 284 284 283 282 281 281 281 280 279 279 279 279 279 279 279 278 276 274 274 274 274 274 274 274 275 275 275 275 275 275 275 275 275 275 275 275 275 275 275 276 276 276 277 277 278 278 278 279 279 280 280 280 281 281 280 280 281 283 284 285 287 288
289 288 288 287 287 286 286 287 287 287 287 287 287 287 287 286 286 285 285 284 284 284 284 284 283 282 281 281 280 280 279 279 279 279 279 279 279 278 276 274 274 274 274 274 274 274 275 275 275 275 275 275 275 275 276 276 276 276 276 276 276 276 276 276 276 277 277 278 279 279 280 280 281 281 282 281 281 281 281 282 283 284 286 288 289
289 288 288 287 287 286 286 287 287 287 287 287 287 287 286 286 285 284 284 283 283 283 283 283 282 282 281 280 280 280 279 279 279 279 279 279 278 277 275 274 274 274 274 274 274 275 275 275 275 275 275 275 275 276 276 276 276 276 276 276 277 277 277 277 277 278 278 278 279 279 280 280 281 282 282 282 282 282 282 283 283 284 286 288 289
290 288 287 287 286 286 286 287 287 287 287 287 287 287 286 285 284 283 283 282 282 283 283 283 282 281 280 280 279 279 279 278 278 278 279 278 277 275 274 274 274 274 274 274 275 275 275 274 274 274 274 275 275 275 276 276 276 276 276 276 277 277 277 277 277 278 278 278 278 279 279 280 281 281 282 282 282 283 282 283 283 285 286 288 289
289 288 287 286 286 286 286 286 287 287 287 287 287 286 286 285 284 283 282 282 282 282 282 282 281 280 280 279 279 278 278 278 278 278 278 277 276 274 273 274 274 274 274 274 274 274 274 273 273 273 274 274 274 275 275 275 276 276 276 277 277 277 277 277 277 278 278 278 278 279 279 280 280 281 282 282 283 283 283 284 284 285 286 287 289
289 287 287 286 286 286 286 286 287 287 287 287 286 286 285 284 283 282 282 281 282 282 282 281 280 280 279 279 278 278 278 278 278 278 278 276 274 273 273 274 274 274 274 274 273 273 272 272 272 273 273 274 274 274 275 275 276 276 276 277 277 278 278 278 278 278 278 278 278 279 279 280 280 281 282 282 283 284 284 285 286 287 287 288 289
288 287 286 286 286 286 286 287 287 287 287 287 286 285 284 283 282 282 281 281 281 281 281 280 280 279 279 279 278 278 278 277 277 277 277 274 273 273 273 273 274 274 273 273 272 272 271 271 272 272 273 273 274 274 275 275 275 275 276 277 277 279 279 279 279 279 279 279 279 279 280 281 281 282 283 283 284 284 285 286 287 288 289 289 289
287 286 286 286 286 286 286 287 287 287 287 286 285 284 283 282 282 281 281 281 280 280 280 279 279 279 279 278 278 278 277 277 277 276 275 273 272 273 273 273 273 273 273 272 272 271 271 271 271 272 273 273 273 274 274 274 274 274 275 276 277 278 280 280 280 280 280 280 280 280 281 281 282 283 284 284 285 285 285 286 288 289 289 290 290
287 286 286 286 286 286 287 287 287 287 286 285 284 283 282 281 281 281 280 280 279 279 279 279 279 279 278 278 278 277 277 276 276 275 274 272 272 272 273 273 273 272 272 271 270 270 271 271 272 272 272 273 273 273 273 273 273 274 275 275 276 278 279 280 280 280 280 280 281 281 281 282 282 283 284 285 285 285 286 286 287 289 289 289 290
286 286 286 286 286 287 287 287 287 287 286 285 283 282 282 281 281 280 280 279 278 278 278 279 279 278 277 277 277 277 276 275 275 273 272 272 271 271 271 272 272 272 271 270 270 270 271 271 272 272 272 272 272 272 272 272 273 273 274 275 275 277 278 279 279 280 280 280 281 281 281 282 283 283 284 285 285 286 286 286 287 287 288 288 289
286 285 286 286 286 287 287 287 287 286 285 284 282 281 281 281 280 279 278 278 277 277 278 278 278 278 277 277 276 276 275 274 273 272 271 271 271 271 271 271 271 271 270 270 270 270 270 271 272 272 272 272 272 271 272 272 272 273 273 274 275 276 277 278 279 279 280 280 281 281 282 283 283 284 285 285 286 286 286 287 287 287 288 288 288
286 285 286 286 287 287 287 287 286 285 284 282 281 281 280 280 279 278 277 277 277 277 278 278 278 277 276 276 275 274 273 272 271 271 271 271 271 271 271 270 270 270 270 270 270 270 271 272 272 272 272 272 271 271 271 272 272 272 272 273 274 275 276 276 277 278 279 279 279 281 282 283 284 285 285 286 286 287 286 287 287 287 288 288 288
286 286 286 286 287 287 287 286 285 284 283 281 280 280 279 279 278 277 277 276 276 277 278 278 277 276 276 275 274 273 272 271 271 271 271 271 271 271 271 270 270 270 270 269 270 271 272 272 272 272 272 271 271 271 270 270 271 271 271 271 272 273 274 274 275 277 277 278 279 281 282 283 284 285 286 286 286 287 287 287 288 288 288 288 288
286 286 286 287 287 286 286 286 285 283 282 280 280 279 278 278 277 276 276 276 276 277 277 277 277 275 275 274 273 272 271 270 270 270 271 271 271 271 271 270 270 271 270 270 271 272 272 272 272 272 271 270 270 270 270 269 270 270 270 270 271 271 272 272 273 274 275 276 278 280 282 283 284 285 286 287 287 287 287 288 288 288 288 288 289
286 286 287 287 286 286 286 285 283 282 280 280 279 278 277 276 276 276 275 276 276 276 277 277 275 274 274 273 272 272 271 270 270 271 271 271 271 271 271 271 271 271 271 271 272 272 272 272 271 271 270 269 269 269 269 269 269 269 270 270 270 270 271 271 271 272 273 274 276 279 281 282 284 285 286 287 287 287 287 288 288 288 288 289 289
286 286 287 286 286 286 286 284 282 280 280 279 278 278 277 276 275 275 275 275 275 276 276 275 274 273 273 272 272 272 271 271 271 271 271 271 271 272 271 271 272 272 271 271 272 272 271 271 271 270 269 269 268 269 269 269 269 269 269 269 270 270 270 271 271 271 272 273 274 276 278 280 281 283 285 286 287 288 288 288 288 289 289 289 290
286 286 286 286 286 286 285 283 282 280 280 279 278 277 276 276 275 275 275 274 274 275 275 274 273 273 272 272 271 271 271 271 271 271 271 271 271 271 271 272 272 272 271 271 272 271 271 271 270 269 269 268 268 268 269 268 269 269 269 269 270 270 270 270 271 271 271 272 273 274 275 276 278 281 283 285 286 287 288 288 288 289 289 290 290
286 286 286 286 286 285 284 282 281 280 280 279 278 276 275 276 276 276 275 275 274 275 275 274 273 272 272 272 271 271 271 271 271 271 271 271 271 271 272 272 272 271 271 271 271 271 270 270 270 269 269 268 268 268 268 269 269 269 269 269 269 270 270 270 271 271 271 272 272 272 273 274 275 278 281 284 285 286 288 289 289 289 289 290 291
286 287 286 287 286 285 283 281 281 280 279 278 277 276 275 275 276 276 276 275 275 274 274 273 272 272 272 272 272 271 271 271 271 271 271 271 271 271 271 272 272 272 271 271 271 270 270 270 269 269 269 269 269 268 268 269 269 269 269 269 269 270 270 270 270 271 271 271 271 271 271 272 273 275 278 281 283 285 287 288 289 290 290 290 291
286 286 287 287 286 285 283 281 280 279 278 277 276 275 275 274 274 275 275 274 274 273 272 272 272 272 271 272 272 271 271 271 271 271 271 271 271 271 271 272 272 271 271 271 270 270 269 269 269 269 269 269 269 268 268 269 269 269 269 269 269 270 270 270 270 271 271 270 270 270 271 272 272 274 276 279 281 283 286 288 289 290 291 291 291
286 286 286 285 284 283 282 280 279 278 277 276 275 274 274 274 274 274 274 274 273 272 271 271 271 272 272 272 271 270 270 271 271 270 270 270 270 271 271 271 271 270 270 270 270 270 269 269 269 269 269 269 269 269 269 269 269 269 269 269 269 270 270 270 270 270 270 270 270 270 270 271 272 273 275 277 279 282 284 286 288 289 290 291 291
285 285 285 284 282 281 280 279 278 277 276 275 275 274 274 275 275 274 274 274 274 273 272 272 272 272 272 271 271 270 270 271 270 270 269 270 270 270 270 270 269 269 269 269 269 269 269 269 269 269 269 269 269 269 269 269 269 269 269 269 269 270 270 270 270 270 270 270 269 269 270 270 271 272 273 275 278 281 283 285 287 288 290 291 292
284 285 285 283 281 280 279 278 277 276 275 275 275 275 275 275 275 275 275 274 274 273 272 272 272 271 271 271 271 271 271 271 271 270 270 271 270 270 270 269 269 269 269 269 269 269 269 269 269 269 269 269 269 269 269 269 269 269 269 269 269 270 270 270 270 270 270 269 269 269 269 270 271 272 272 274 277 280 283 285 286 288 289 291 292
282 282 282 281 280 279 279 278 277 276 275 275 274 275 275 275 275 274 274 274 273 273 272 272 272 272 271 271 271 271 272 272 272 271 271 270 270 269 269 269 269 269 268 269 269 269 269 269 269 269 269 269 269 269 269 269 269 269 269 269 269 270 270 270 270 270 269 269 269 269 269 270 271 272 273 274 276 279 283 285 287 288 289 291 292
282 281 280 280 279 278 278 277 277 276 275 275 275 275 274 274 274 274 274 273 273 272 272 272 271 271 271 271 271 271 272 271 271 271 270 270 269 269 269 269 268 268 268 268 268 268 269 269 269 269 269 269 269 269 269 269 269 269 269 269 269 270 270 270 270 270 269 269 268 269 269 270 271 272 273 275 277 279 282 285 287 289 290 291 292
283 282 280 279 278 277 276 276 276 275 275 274 274 274 274 274 274 274 273 273 272 272 271 271 271 271 271 271 271 271 271 271 270 270 270 269 269 269 269 268 268 268 268 268 268 268 268 269 269 269 269 269 269 269 269 269 269 269 269 269 269 270 270 270 270 270 269 268 268 268 269 270 272 273 274 276 278 280 282 285 287 289 291 292 293
284 282 281 279 278 277 276 275 275 275 274 274 274 274 274 273 273 273 272 272 271 271 271 270 270 270 270 270 270 270 270 270 270 269 269 269 269 269 269 268 268 268 268 268 268 268 268 268 268 269 269 269 269 269 269 269 269 269 269 269 269 270 270 270 270 270 269 269 269 269 269 270 272 273 274 276 278 280 283 286 288 290 291 293 294
284 283 281 279 278 277 276 275 275 274 274 274 274 273 273 272 272 272 272 271 271 271 270 270 270 270 270 270 270 270 270 270 270 269 269 269 269 269 269 268 268 268 268 267 267 267 268 268 268 268 269 269 269 269 269 269 269 269 269 269 269 270 270 270 270 270 270 269 269 269 270 270 272 273 274 276 278 280 284 286 288 291 293 294 295
283 281 279 278 276 275 275 275 274 274 274 274 273 273 272 272 272 271 271 271 271 270 270 270 270 270 270 270 270 270 270 270 270 270 270 269 269 269 269 269 268 268 268 268 267 267 267 268 268 268 269 269 269 269 269 269 269 269 269 269 269 270 270 269 270 270 270 269 269 270 270 270 271 273 275 276 278 282 285 288 290 292 294 295 296
282 280 278 277 275 274 274 274 274 274 274 273 273 272 272 271 271 271 271 271 270 270 270 270 270 270 270 270 270 270 270 270 270 270 270 270 269 269 269 269 269 268 268 268 268 268 267 267 268 268 269 269 269 270 269 269 269 269 269 269 270 270 269 269 269 270 270 270 270 269 269 270 271 273 275 277 280 283 286 288 291 292 294 295 297
280 278 277 276 275 274 274 274 273 273 273 273 272 272 271 271 271 271 271 270 270 270 270 270 270 270 270 270 270 270 270 270 270 270 270 270 269 269 269 269 269 269 269 268 268 268 268 268 268 268 268 269 269 269 269 269 269 269 269 269 270 270 269 269 269 270 271 271 270 270 269 270 271 273 275 278 280 283 286 289 291 293 294 295 297
278 277 276 275 275 274 274 274 273 273 273 272 271 271 271 271 271 271 270 270 270 270 270 270 270 270 270 270 270 271 270 270 270 270 270 270 269 269 269 269 269 269 269 269 269 269 268 268 268 268 268 269 269 269 269 269 269 269 269 269 270 270 269 269 269 271 272 272 271 270 270 270 271 273 276 279 281 283 286 289 291 293 294 295 297
276 275 275 274 275 275 274 273 273 272 272 271 271 271 271 270 270 270 270 270 270 270 270 270 270 270 270 270 270 270 270 270 270 270 270 270 270 270 270 270 270 270 269 269 269 269 269 269 268 268 268 269 269 269 269 269 269 269 269 269 270 270 269 269 269 271 272 273 272 272 272 271 272 273 276 279 280 282 285 288 290 292 294 295 297
275 274 274 274 274 274 274 273 273 272 272 271 271 270 270 270 270 270 270 270 270 270 270 270 270 270 270 270 270 270 270 270 270 270 270 270 270 270 270 270 270 270 270 269 269 269 269 269 269 268 268 269 269 269 269 269 269 269 269 269 270 270 269 269 269 271 272 272 272 273 273 273 273 274 276 278 280 281 283 286 289 291 293 295 297
273 273 273 273 273 273 273 272 272 272 271 271 270 270 270 270 270 270 270 270 270 270 270 270 270 270 270 270 270 270 270 270 270 270 270 270 270 270 270 270 270 270 270 269 269 269 269 269 269 269 269 269 269 269 269 269 269 269 269 269 269 270 270 269 269 270 272 272 272 273 273 274 274 274 276 277 279 280 282 284 287 290 292 294 296
272 272 272 272 272 272 272 272 271 271 270 270 270 270 270 270 270 270 269 269 269 270 270 270 270 270 270 270 270 269 269 270 270 270 270 270 270 270 270 270 270 270 270 269 269 269 269 269 269 269 269 269 269 269 269 269 268 268 269 269 269 270 270 269 269 270 271 271 272 273 273 274 274 274 275 276 278 279 281 283 285 288 291 293 295
Wind_Speed
51 52 53 53 52 50 47 45 42 39 37 34 32 30 28 26 25 25 24 24 23 23 24 26 26 27 27 27 28 29 29 29 29 29 30 31 31 32 34 35 37 39 40 40 39 39 40 41 41 40 37 37 38 38 36 34 33 33 31 32 37 39 37 39 43 46 47 52 60 53 41 41 41 40 42 43 46 50 48 45 45 44 46 49 52
51 52 53 54 53 51 48 45 43 40 37 35 33 30 29 27 26 25 24 23 23 24 25 26 26 26 27 27 28 28 29 29 29 29 30 30 32 33 34 36 38 39 40 41 40 40 41 42 43 42 38 37 41 40 38 35 32 35 36 35 40 43 39 39 42 45 48 50 52 47 39 38 40 38 39 44 50 55 53 51 49 45 44 44 47
50 52 53 54 53 51 48 46 43 40 37 35 33 31 29 27 26 25 23 23 23 25 25 25 26 26 26 27 28 28 28 28 29 29 30 31 32 34 35 36 38 39 40 40 41 41 42 42 43 41 36 36 41 40 36 35 33 36 40 39 40 41 39 39 41 43 47 49 49 44 36 36 39 39 43 48 49 52 53 53 53 52 51 50 49
50 52 54 54 54 51 49 47 43 40 38 36 33 31 29 27 26 24 22 23 24 25 25 25 25 26 26 26 27 28 28 28 29 29 30 32 33 34 36 37 38 40 40 41 41 42 42 43 43 40 35 36 41 38 33 33 33 35 38 38 37 38 38 39 41 42 43 47 49 43 36 39 42 41 45 50 46 46 49 48 48 50 50 49 48
51 53 54 55 54 52 50 47 44 41 38 36 33 31 29 27 25 23 22 23 24 24 24 25 25 25 25 26 26 27 28 28 29 29 30 32 34 35 36 38 39 40 41 42 42 42 42 43 42 39 35 36 40 40 36 34 34 34 36 36 36 37 38 38 38 40 40 44 48 44 38 39 42 42 45 47 43 43 46 45 45 46 45 45 45
51 53 55 56 55 53 50 47 44 41 38 36 33 31 29 26 24 23 22 24 24 24 24 24 24 24 25 25 26 27 28 28 29 30 31 33 35 36 37 38 40 41 41 41 41 41 41 41 42 40 38 39 42 42 41 38 36 35 35 36 36 37 38 38 37 39 41 42 43 42 38 37 39 43 43 41 41 44 47 46 45 44 42 43 44
51 53 55 56 55 53 51 47 43 41 38 36 33 30 28 25 23 22 23 24 23 23 23 23 24 24 24 25 26 27 27 28 29 30 32 34 35 36 37 38 40 41 42 42 41 42 42 42 43 43 42 42 44 43 42 40 39 37 35 36 36 37 38 38 37 38 39 41 40 39 39 36 36 41 42 41 43 46 47 49 50 48 43 41 42
52 54 55 56 55 53 50 46 43 41 38 35 32 30 27 25 23 23 24 24 23 22 23 23 23 23 24 25 25 26 27 28 29 31 32 34 35 36 37 38 40 41 42 43 42 43 43 43 43 43 43 43 42 41 40 39 40 40 37 36 36 37 38 37 37 37 36 38 39 37 37 37 36 39 42 41 41 42 42 43 45 45 44 42 41
52 54 55 56 55 53 49 46 44 41 38 35 32 29 26 24 23 23 24 23 22 22 22 22 23 23 23 24 25 26 27 28 29 31 32 33 34 36 37 38 39 41 42 43 43 42 43 43 43 43 42 41 39 39 39 39 42 45 45 43 41 41 42 40 40 40 38 39 41 39 40 43 40 39 43 42 39 40 42 42 41 41 41 42 44
52 54 56 56 55 52 49 47 44 41 38 34 32 29 26 24 24 24 24 22 21 21 22 22 22 22 23 24 24 25 27 28 29 30 31 32 34 36 37 38 38 39 40 42 42 42 41 40 41 41 39 38 39 40 41 41 42 45 47 47 46 46 47 45 45 47 45 46 48 44 43 45 42 40 44 44 41 41 43 46 46 43 41 41 42
53 54 55 56 55 52 49 47 44 41 37 34 31 28 25 24 24 24 23 21 21 21 21 21 21 22 23 24 24 25 26 27 28 29 30 31 33 34 35 36 37 37 38 39 39 40 39 38 38 38 37 38 39 39 39 40 40 42 43 44 44 46 48 48 49 49 48 48 48 44 41 43 43 42 43 43 42 43 44 45 46 45 43 38 33
53 54 55 55 54 51 49 46 43 40 37 34 30 27 25 25 24 24 22 21 20 20 20 20 21 22 23 24 24 25 25 26 27 29 30 30 31 32 33 34 35 36 36 36 36 37 38 39 39 37 35 35 37 38 39 40 41 41 41 42 42 43 45 47 49 50 49 48 47 46 44 45 45 44 44 44 44 45 45 45 45 45 44 39 31
52 54 54 54 53 51 49 46 43 40 36 33 30 27 26 25 24 23 21 20 20 19 19 19 20 21 23 24 24 24 24 25 27 28 29 30 30 30 31 33 33 34 35 35 36 36 37 40 41 40 37 35 36 39 41 41 41 40 40 40 41 41 42 44 45 47 48 49 49 50 48 46 44 44 44 45 46 48 50 49 47 45 44 41 34
51 53 54 54 53 51 48 46 42 39 35 32 29 27 26 25 23 22 20 20 19 18 18 19 19 21 22 23 24 24 23 24 26 27 28 29 29 29 31 32 32 34 35 36 37 37 36 40 44 45 45 44 42 40 41 42 42 42 41 41 42 42 41 42 43 44 46 48 50 51 49 47 46 45 46 47 47 50 53 54 52 51 49 45 40
50 52 53 53 52 50 48 45 42 38 34 31 29 27 26 24 22 21 20 19 19 17 17 18 19 21 22 23 24 23 22 23 25 27 27 27 28 29 30 32 33 35 37 38 40 41 40 42 45 47 48 48 45 41 40 42 43 44 45 45 45 45 44 43 44 44 45 46 48 50 50 49 48 48 49 49 48 48 50 51 51 50 50 50 47
49 51 53 53 51 50 48 44 41 37 33 31 28 26 24 22 21 20 20 19 18 17 16 17 19 21 21 22 24 23 22 22 24 25 25 25 27 29 30 32 33 36 38 40 43 46 46 45 45 47 48 48 46 42 40 41 43 45 47 47 48 48 47 45 43 44 46 48 50 53 54 52 51 50 49 49 48 46 45 47 47 45 45 47 46
48 51 52 52 51 49 47 43 39 36 32 29 27 24 22 21 20 20 19 18 17 16 16 17 19 21 21 22 23 23 22 22 22 24 24 24 26 28 30 32 34 36 40 41 43 46 46 42 41 44 46 46 44 41 39 41 44 46 48 50 50 51 50 48 46 46 45 44 45 48 51 51 50 49 48 49 50 47 45 49 50 44 42 42 41
49 51 53 53 51 49 46 42 38 35 31 28 25 23 22 21 20 19 18 16 16 15 15 17 19 21 21 21 22 23 23 22 22 23 23 24 25 26 29 32 35 38 41 42 42 42 43 40 39 40 42 42 41 40 40 41 44 45 47 49 50 51 50 48 47 46 44 42 43 46 48 48 46 44 44 46 47 46 48 53 53 47 45 45 41
50 52 53 52 50 47 44 40 37 33 29 26 24 23 22 20 19 18 17 15 15 15 15 17 19 20 21 20 21 22 23 23 22 22 23 23 23 25 28 32 36 39 40 42 43 42 42 42 40 38 37 38 39 39 39 40 43 46 48 49 51 52 49 46 46 46 45 46 46 45 46 45 44 44 45 45 43 42 46 50 51 49 49 48 44
50 52 52 51 48 45 41 37 33 30 27 25 23 22 21 20 19 17 15 14 15 14 15 18 19 20 20 19 20 21 22 23 22 22 23 23 22 23 26 30 35 38 40 41 44 46 46 45 41 36 35 37 38 39 41 42 45 47 49 50 53 54 52 49 47 45 45 46 46 45 46 46 46 46 48 47 43 41 43 45 48 50 52 51 48
50 52 52 50 47 44 39 35 31 28 26 24 23 22 21 20 18 16 14 14 14 13 15 18 20 20 19 18 18 20 21 22 22 23 23 23 22 22 25 28 32 36 39 42 45 47 48 46 41 37 36 38 40 42 44 45 45 46 47 48 49 50 50 50 48 45 45 46 46 47 47 47 46 45 46 47 45 42 42 43 43 46 51 52 50
51 52 52 50 47 43 38 34 30 27 25 24 23 22 20 19 17 15 14 14 13 13 14 17 19 19 19 18 18 19 20 21 22 23 24 23 22 22 25 27 30 33 37 42 45 46 45 44 41 39 39 41 44 45 44 43 43 43 42 42 43 44 44 45 45 45 46 46 45 44 44 44 45 44 42 43 40 38 41 41 38 38 43 47 48
51 52 52 50 47 42 38 33 30 28 26 25 24 22 20 18 16 14 13 12 11 12 14 16 18 19 18 18 18 19 20 21 22 23 24 23 22 23 24 26 28 30 33 38 42 44 44 42 42 41 42 44 44 42 41 40 38 37 36 36 37 38 37 36 37 41 44 44 43 42 42 43 43 41 39 39 37 36 37 38 35 33 35 40 44
52 53 52 50 46 42 38 35 32 30 28 26 23 21 20 18 16 13 12 11 10 11 13 16 17 17 17 18 18 19 20 22 23 24 24 24 23 24 25 26 27 29 31 35 38 39 40 41 42 42 42 41 39 37 36 35 32 31 31 31 31 31 30 29 30 34 38 41 41 41 42 42 41 39 37 36 35 34 35 36 36 34 35 38 41
53 54 52 50 46 42 38 35 33 30 28 25 23 21 20 18 15 13 12 10 9 10 13 15 16 16 16 17 19 20 21 23 24 24 25 25 25 26 27 27 29 30 31 33 34 34 36 39 40 39 37 35 34 33 33 32 31 30 29 27 26 26 25 24 25 27 32 36 40 42 43 42 39 38 37 35 34 33 34 36 38 38 37 38 39
55 55 53 49 45 42 38 36 32 29 27 25 23 21 19 17 14 13 11 9 9 10 12 14 14 14 14 16 18 20 22 23 24 24 26 26 27 28 28 29 31 33 33 31 31 32 36 38 36 34 33 32 32 33 33 33 32 31 30 28 26 24 22 21 23 24 27 30 33 38 41 41 38 35 34 35 35 34 34 35 38 39 38 37 37
56 55 53 49 45 42 38 35 32 29 27 25 23 21 19 16 13 12 10 9 9 9 11 12 12 12 13 15 17 19 21 21 22 24 26 27 27 28 29 30 33 35 34 32 32 34 36 35 33 32 33 33 34 34 34 34 34 34 35 33 30 27 24 23 23 24 25 27 28 31 34 36 37 36 35 35 36 37 36 35 37 38 37 35 36
57 56 52 48 44 41 37 34 30 28 26 25 23 21 18 15 13 12 10 8 8 9 10 11 11 11 12 15 17 18 19 20 22 23 24 25 26 27 29 31 33 34 31 31 33 34 35 34 34 34 34 36 37 38 39 39 38 37 37 36 34 32 29 27 26 25 26 27 28 28 26 27 31 35 37 37 36 37 36 36 36 37 35 35 36
57 55 51 47 43 40 36 33 30 28 26 24 22 19 17 14 13 11 10 8 7 8 8 9 9 10 12 13 15 17 18 19 19 20 21 22 23 25 26 28 30 30 28 29 32 33 34 34 35 37 38 39 41 42 43 44 42 40 38 38 38 37 34 33 32 30 29 29 29 28 26 24 25 28 33 37 38 36 35 35 35 35 35 36 37
57 54 50 47 43 39 35 32 30 28 26 24 22 19 17 15 14 11 9 7 5 6 7 7 8 10 11 12 13 14 15 15 16 18 19 20 21 22 23 25 26 25 25 27 30 32 33 34 35 38 40 42 44 44 45 46 46 45 43 42 40 38 36 35 34 33 32 32 30 28 27 26 24 23 26 32 36 37 35 34 35 36 36 36 37
59 55 51 47 42 37 34 32 30 28 26 24 22 20 18 16 14 11 8 6 4 4 5 5 6 7 10 12 12 12 12 13 15 17 18 19 20 21 22 23 24 23 23 25 28 30 33 35 36 39 41 43 45 45 46 48 48 48 47 45 43 41 38 36 35 34 34 33 31 29 28 27 26 25 24 26 29 34 36 35 34 35 36 36 36
60 55 49 45 40 36 34 32 30 29 27 24 22 20 19 18 15 12 10 7 4 3 3 3 3 5 7 9 11 11 11 13 14 16 17 18 19 20 21 22 23 24 25 25 27 29 32 34 37 39 42 44 45 46 47 48 48 48 48 47 46 46 43 39 37 35 34 34 33 33 31 30 28 27 26 25 26 29 33 35 35 35 36 37 37
58 53 48 44 39 36 34 32 30 29 26 24 22 21 20 18 16 13 11 9 6 4 2 1 2 4 5 6 8 10 11 12 13 15 16 18 19 20 21 21 22 24 26 28 29 31 32 34 36 39 42 44 45 46 47 48 49 49 48 46 47 48 46 41 38 36 34 32 33 33 33 32 30 28 27 28 28 28 30 33 35 36 35 36 36
55 51 47 43 39 37 35 32 30 28 26 24 22 21 19 17 14 12 12 10 8 5 4 2 1 3 4 5 6 8 9 11 12 14 16 18 19 20 20 19 19 22 24 27 29 31 34 35 37 39 42 44 45 47 48 49 49 49 48 46 46 49 48 43 39 38 37 36 36 36 34 32 30 28 27 28 29 29 29 29 32 35 37 36 35
51 48 44 41 38 36 34 32 29 27 25 23 21 19 17 16 13 11 9 8 6 5 5 4 3 2 3 3 5 6 8 10 11 12 14 17 18 20 20 21 22 24 26 28 29 31 33 36 37 40 42 44 45 46 48 48 49 50 49 47 46 48 49 44 40 40 40 40 40 39 37 33 29 28 27 27 28 30 30 29 29 32 36 37 36
52 48 44 41 37 34 32 31 28 26 25 23 22 20 18 16 15 13 11 9 7 7 8 7 5 3 1 2 4 5 6 8 10 12 14 15 17 20 21 23 25 27 29 30 30 30 32 34 36 39 41 43 45 46 47 48 49 50 51 47 45 47 49 45 41 41 42 42 41 41 40 37 31 27 26 27 28 28 30 31 31 31 33 35 36
52 47 43 39 36 33 32 30 29 27 26 24 24 22 21 19 17 16 14 13 11 11 10 8 6 3 2 1 2 3 5 7 9 10 12 13 15 18 20 23 25 27 29 31 31 32 32 33 35 38 40 42 44 46 47 49 50 51 52 49 46 47 48 44 41 42 44 43 42 42 42 40 35 30 27 27 27 28 28 30 32 32 33 34 35
48 43 40 38 36 34 33 31 30 29 27 26 24 22 20 19 18 16 15 14 13 12 10 8 6 5 3 2 1 1 3 5 6 7 9 12 15 18 19 21 23 25 28 30 31 32 33 33 34 36 38 41 44 46 48 49 50 52 53 52 50 51 50 46 44 45 45 44 43 43 43 42 38 33 29 27 27 28 27 28 29 31 33 35 37
45 42 39 37 36 35 33 32 31 30 28 26 24 22 20 18 17 16 14 13 12 11 9 8 7 6 5 4 2 2 3 5 7 9 12 14 16 18 19 20 22 24 26 28 30 32 33 33 34 35 37 39 42 45 48 49 51 52 54 53 52 54 52 48 47 49 48 46 45 45 44 43 41 35 30 27 26 26 26 26 27 28 31 34 38
44 40 38 36 35 34 33 31 30 28 27 25 23 21 19 18 16 15 14 12 12 10 9 7 7 6 5 4 4 4 5 7 10 12 13 14 15 16 18 19 21 23 25 27 29 31 32 34 35 35 36 37 40 43 46 48 50 53 54 52 52 54 53 50 49 51 50 48 47 46 45 44 41 37 31 27 25 24 24 25 26 27 29 33 39
43 40 38 37 35 34 32 30 28 26 25 23 21 20 19 17 16 15 14 13 11 10 8 7 6 5 4 4 5 6 7 9 10 11 12 14 15 16 17 18 20 21 23 25 28 30 31 33 35 35 36 36 38 41 44 47 49 52 53 52 52 55 55 53 54 54 53 50 48 47 46 44 41 37 33 28 24 23 22 23 25 26 27 31 37
42 40 39 37 36 34 32 30 28 26 24 23 21 19 18 17 16 15 14 13 12 10 9 8 6 5 4 4 5 6 7 8 9 10 11 13 14 15 16 18 19 20 22 24 26 28 30 32 34 35 36 36 37 40 43 46 49 51 52 51 53 55 57 57 58 58 56 53 50 48 46 44 41 38 34 29 24 22 21 21 23 24 23 27 35
40 38 38 37 36 34 32 31 29 27 25 23 21 20 19 18 17 16 14 13 12 11 9 8 7 5 4 4 5 5 6 7 8 9 10 12 13 15 16 17 18 20 21 22 24 27 29 31 32 34 35 35 36 39 42 44 47 49 49 49 51 55 58 60 62 62 60 56 52 49 47 44 41 38 35 30 25 21 19 18 19 20 20 24 32
39 38 38 37 35 33 31 30 28 26 24 22 21 20 20 18 17 16 15 14 12 11 10 9 7 6 4 4 4 4 5 6 7 9 10 11 13 14 16 17 19 20 21 22 24 25 27 29 31 32 34 34 35 36 39 43 45 46 46 47 50 56 61 63 63 63 62 58 53 51 49 45 42 39 36 32 26 20 18 16 16 16 17 21 28
37 38 37 37 35 34 31 29 27 25 24 23 22 21 20 19 18 16 15 14 13 12 11 10 8 7 5 4 3 3 4 5 7 8 10 11 13 15 17 18 20 21 23 24 25 26 28 29 31 32 33 35 36 37 39 42 45 46 45 45 48 54 60 62 61 61 60 57 53 51 49 46 42 39 36 32 27 21 17 16 14 14 15 19 26
37 37 37 36 35 34 31 29 27 25 24 23 23 22 21 20 18 17 16 15 14 13 12 10 9 7 6 5 4 3 4 5 6 8 10 11 13 15 17 19 20 22 24 25 26 27 28 30 31 32 33 34 36 38 40 42 45 47 46 46 48 53 59 61 60 60 60 56 52 50 49 46 43 39 34 30 26 21 17 15 14 13 14 18 25
37 36 36 35 34 32 30 28 26 25 24 23 23 22 21 20 18 17 16 15 14 13 12 11 9 8 7 5 4 3 3 4 6 7 9 11 13 15 17 19 20 22 23 25 26 28 29 30 31 32 33 33 34 37 40 42 45 47 47 46 48 52 57 60 59 59 58 56 53 50 49 46 44 39 34 29 25 21 16 14 12 11 13 17 23
37 35 34 33 31 30 29 28 27 26 25 24 23 22 21 19 18 17 16 15 14 13 12 10 9 8 7 5 4 3 2 4 5 7 9 10 12 14 16 18 20 21 22 24 26 28 29 31 32 34 34 34 34 35 38 41 44 46 47 46 47 50 56 60 59 57 57 57 55 52 49 47 44 40 35 29 26 22 17 13 10 9 12 17 21
36 34 33 31 29 27 27 27 26 26 25 24 24 23 21 19 18 17 16 15 14 12 11 10 9 7 6 5 3 2 2 3 5 6 8 10 12 14 15 17 19 20 22 24 25 27 29 31 32 33 35 35 34 34 36 39 43 46 47 46 46 49 55 59 59 56 56 58 58 56 52 48 45 43 37 31 27 23 18 13 9 7 9 15 19
34 32 30 28 27 26 25 25 25 24 24 24 23 22 21 19 18 17 15 15 13 12 11 10 8 7 6 4 3 2 2 3 4 6 8 10 12 14 15 17 18 20 21 23 25 26 28 30 31 33 35 36 35 34 35 37 41 44 45 45 45 48 54 59 59 56 55 58 60 59 55 50 47 45 41 35 30 26 20 15 10 5 6 11 15
32 30 28 27 26 26 25 25 24 24 24 23 22 21 20 19 17 16 15 14 13 12 11 9 8 7 6 4 2 1 1 3 5 7 9 11 12 14 16 17 19 20 21 23 24 25 27 29 31 32 34 36 37 36 35 36 39 41 42 44 45 46 52 58 60 57 55 58 59 59 58 54 50 47 44 40 35 30 24 18 13 5 2 6 11
Wind_Direction
234 234 233 231 230 228 226 225 225 225 226 227 229 231 234 238 243 249 255 263 271 277 281 284 289 295 299 303 306 308 307 306 306 306 307 309 310 311 312 311 310 310 309 309 308 305 301 297 294 290 285 280 278 277 275 271 267 264 262 263 261 262 263 261 263 269 269 269 273 275 275 277 279 278 277 277 278 281 280 278 278 275 268 266 262
234 234 232 231 229 227 226 225 224 224 225 225 227 230 233 237 242 249 256 265 272 277 280 285 291 297 301 305 307 308 307 306 306 306 308 310 311 311 311 310 310 310 310 310 309 307 303 299 296 292 286 279 278 281 278 271 266 265 265 265 265 263 262 263 265 268 271 270 270 273 276 277 275 274 275 278 281 282 279 274 272 268 264 266 264
235 234 232 230 228 226 225 224 223 223 223 224 226 228 231 236 242 249 258 266 271 276 280 287 294 298 302 306 307 307 305 305 305 307 310 311 310 311 310 311 311 311 311 311 310 307 303 299 298 294 286 281 283 285 278 270 270 271 269 267 267 264 262 264 266 267 269 270 270 274 278 277 274 274 277 281 283 282 281 279 276 269 264 265 265
234 233 231 229 227 225 224 223 222 221 222 223 224 227 231 236 243 250 259 266 270 276 282 289 294 298 303 306 306 306 304 304 306 309 311 310 310 311 312 313 314 313 313 312 311 309 304 301 300 296 288 285 288 288 278 271 273 274 272 269 266 265 265 266 266 265 267 270 271 274 279 279 276 276 280 285 284 279 279 280 279 276 271 268 263
234 232 230 228 226 224 223 222 221 220 220 221 223 226 231 237 243 252 259 265 270 276 283 290 294 299 304 305 305 304 304 305 308 310 311 311 312 313 314 316 316 315 314 313 311 309 305 303 301 297 292 290 292 292 286 280 276 273 272 270 266 268 269 267 266 266 266 269 272 275 278 277 276 277 282 285 285 280 278 279 280 279 276 270 260
233 231 229 226 224 223 222 220 219 219 219 220 222 226 231 238 245 253 260 265 271 277 284 290 296 300 304 304 304 303 304 307 309 311 312 313 314 316 317 318 317 315 314 312 311 308 304 302 301 300 297 295 295 295 291 285 279 273 271 270 268 269 269 267 267 266 267 268 271 275 277 276 277 280 280 283 286 282 277 277 278 277 275 271 262
232 229 227 225 223 221 220 219 218 217 218 219 222 226 232 239 247 254 260 265 271 278 285 291 296 301 303 304 303 304 306 308 311 313 314 315 317 318 318 318 316 315 313 311 310 308 305 304 304 302 300 298 297 295 290 285 280 274 269 269 271 269 268 268 267 266 266 267 269 272 274 275 277 280 282 286 288 284 278 276 274 271 271 269 265
231 228 225 223 221 220 219 217 216 216 216 218 222 227 233 240 248 255 260 266 272 279 287 292 296 300 303 303 303 305 307 310 312 315 316 317 319 318 318 317 316 314 313 311 310 309 308 307 305 302 300 298 296 292 286 281 280 277 271 267 269 269 268 268 267 267 266 267 269 269 271 275 276 279 286 289 287 283 280 280 275 272 273 271 269
230 226 223 221 220 218 217 216 215 215 216 218 222 227 234 241 248 255 260 266 273 281 287 292 296 300 302 302 303 306 309 312 314 316 317 319 319 318 317 316 315 314 312 311 310 309 309 307 305 303 299 293 287 282 279 276 275 277 275 272 269 268 269 267 266 267 265 265 269 268 268 273 275 278 284 286 284 282 281 280 277 277 280 277 273
229 225 222 219 218 217 215 215 214 214 215 218 222 227 234 241 248 254 259 266 273 281 286 291 295 300 301 302 304 307 310 313 315 316 319 320 319 318 316 315 314 312 310 309 310 310 309 305 303 300 294 287 283 279 278 276 272 272 274 273 271 269 269 268 267 269 267 265 269 269 267 271 274 277 280 281 283 284 281 281 281 281 284 281 273
228 224 221 218 216 215 214 214 213 213 215 218 222 228 234 241 247 252 258 266 273 279 285 290 295 300 301 303 305 308 311 313 315 317 320 320 318 316 315 313 312 309 307 308 308 308 308 304 301 297 291 288 288 284 280 279 276 273 272 272 271 269 268 267 267 269 268 267 270 270 267 270 274 277 279 280 283 284 282 283 284 282 283 281 271
227 222 219 217 215 214 214 212 211 212 214 218 223 228 234 240 246 252 258 265 272 278 284 290 296 300 301 303 305 308 312 314 315 318 319 318 317 315 312 311 309 308 308 308 308 307 308 308 305 299 292 288 289 288 284 282 280 277 274 273 272 270 268 267 266 267 268 268 270 270 268 271 275 276 277 277 280 283 283 283 283 281 281 282 277
225 220 217 216 214 213 212 211 211 212 214 219 223 228 235 240 245 252 258 264 270 277 283 290 296 300 301 303 305 309 313 315 316 318 318 318 316 314 311 309 308 309 310 312 313 311 309 310 310 306 300 294 292 289 286 284 283 281 277 276 275 272 270 268 266 266 267 268 269 270 271 273 273 274 275 275 276 279 278 277 279 279 280 283 284
222 218 216 215 213 212 211 210 210 212 215 219 224 229 236 241 245 252 257 263 269 275 282 289 296 299 300 303 305 310 314 315 316 317 318 317 315 313 311 310 311 315 317 316 316 313 308 307 308 308 305 302 299 295 290 286 285 284 281 278 277 276 273 271 270 268 268 268 268 269 271 270 270 273 274 274 274 274 273 272 274 276 277 280 283
221 217 215 213 212 211 210 209 210 212 215 220 225 231 236 241 246 252 257 263 268 274 281 289 295 298 301 303 306 310 315 316 317 318 317 316 314 313 314 315 318 320 320 318 315 314 314 310 307 306 304 301 300 298 292 290 288 286 285 282 280 279 276 274 273 272 269 267 266 268 270 269 270 272 273 275 274 272 273 274 274 276 277 277 279
220 217 214 213 211 209 208 208 209 212 215 220 226 231 237 242 247 252 257 261 267 273 281 290 296 298 301 304 306 310 316 318 317 316 316 315 315 316 319 322 323 321 320 319 316 316 318 316 312 309 305 301 300 296 291 290 289 286 285 284 282 281 278 276 275 273 272 271 268 269 271 271 272 273 273 275 274 271 273 274 273 274 275 275 276
220 217 214 212 210 208 207 207 209 212 216 221 227 232 238 243 247 251 256 261 267 274 283 292 296 299 301 304 307 311 316 318 317 315 315 317 320 323 325 324 323 322 321 320 317 315 315 313 310 308 303 300 299 298 295 295 293 289 287 285 283 282 279 279 280 278 278 277 272 270 270 271 274 276 273 272 270 268 268 267 264 266 269 269 269
220 216 213 211 209 207 206 207 210 213 216 221 227 233 239 242 246 251 255 261 268 276 287 294 297 299 302 305 308 312 315 318 317 316 318 323 327 329 328 325 323 324 322 319 316 314 310 307 304 303 299 297 298 298 298 299 298 295 294 291 288 285 282 282 282 280 278 277 274 273 272 271 273 274 271 271 269 264 260 258 259 261 263 264 264
218 214 211 209 207 206 206 208 210 213 216 221 227 232 237 240 245 249 254 262 270 279 291 296 297 299 302 306 310 314 317 318 320 321 324 331 335 332 328 326 324 322 319 316 315 312 309 307 306 303 300 299 299 299 299 300 299 296 295 292 288 285 283 282 280 277 276 275 275 276 274 273 274 272 273 276 273 264 256 253 254 256 258 259 259
215 211 208 206 204 204 206 208 210 213 217 222 227 231 235 238 242 247 254 262 271 283 294 297 298 300 302 307 313 316 317 318 322 327 331 337 340 334 328 326 323 319 317 315 314 312 311 312 311 306 303 302 302 302 301 300 299 297 295 291 286 284 284 281 278 276 276 275 274 274 274 274 275 274 274 276 274 266 257 253 252 252 254 256 256
210 207 205 203 202 203 205 208 211 215 219 224 228 231 233 236 239 244 252 261 272 287 296 297 298 299 302 309 314 315 317 321 327 332 337 341 341 335 329 324 319 317 315 313 313 312 314 316 314 308 306 306 306 306 305 303 302 299 296 293 290 290 287 281 276 274 274 273 273 274 275 276 276 275 273 272 272 267 259 255 255 254 250 250 251
207 204 201 200 200 201 203 207 210 216 221 225 228 230 230 233 238 241 249 261 274 289 296 296 297 298 303 310 315 317 320 326 333 337 342 344 340 331 326 321 318 316 313 313 314 314 315 318 316 311 309 309 308 308 307 306 305 302 298 296 296 296 292 282 274 271 272 273 274 274 274 275 277 277 273 270 270 268 262 260 262 258 251 248 248
204 201 199 198 198 200 202 206 211 217 222 224 225 226 227 232 235 239 249 261 274 287 293 294 294 298 306 313 317 321 325 332 339 344 346 344 336 327 322 319 318 316 313 312 315 317 318 320 317 313 311 310 310 310 309 309 309 306 302 300 300 300 297 287 276 269 269 271 272 271 271 272 275 275 271 267 268 268 265 264 265 261 253 248 247
201 199 197 196 197 199 201 206 210 215 218 220 221 222 225 229 232 238 249 259 272 283 287 291 295 301 310 315 320 327 333 338 344 348 349 344 334 327 324 320 319 320 316 313 315 317 318 318 316 313 312 313 313 314 314 317 320 317 312 308 303 299 296 292 283 274 270 270 269 268 268 268 269 269 268 266 267 268 267 265 265 263 258 255 254
198 196 195 195 197 198 201 205 209 212 215 216 218 219 222 226 230 237 246 255 267 277 283 290 297 305 313 320 326 334 340 344 347 350 350 343 335 330 327 325 325 325 322 318 316 315 316 317 317 317 320 323 326 327 328 331 333 331 327 324 316 304 296 293 290 283 279 276 273 272 270 269 267 266 265 264 263 264 264 261 261 262 262 263 264
196 194 195 196 196 198 202 205 207 209 211 212 214 216 219 222 225 232 241 250 259 271 282 291 299 308 318 325 332 339 345 347 349 351 349 341 335 331 329 328 329 330 328 325 321 319 320 324 326 328 332 336 339 340 340 339 339 338 338 336 331 321 310 302 297 291 287 286 283 279 275 271 269 266 263 261 258 256 257 256 256 259 260 262 265
194 194 194 195 196 198 202 204 205 206 207 208 210 212 215 218 221 228 236 243 255 269 284 293 301 313 325 332 337 342 346 350 351 351 346 339 333 331 331 331 332 333 334 333 328 325 328 332 337 339 342 345 348 349 348 347 346 347 346 343 340 336 330 323 314 305 300 298 295 289 283 277 272 266 260 258 255 253 254 253 252 254 256 258 261
194 193 194 195 197 199 200 201 203 204 205 206 207 210 212 213 216 224 229 236 252 269 283 294 306 322 333 337 341 343 346 351 352 348 341 334 332 332 334 334 333 333 336 334 330 330 335 340 344 348 350 352 354 354 354 353 352 348 345 344 344 343 340 335 329 320 315 310 303 295 289 284 279 270 260 256 255 255 256 254 252 254 255 255 258
194 193 194 196 197 198 198 199 200 201 201 203 204 205 208 209 212 219 224 231 250 271 286 300 318 333 339 340 341 343 347 350 347 339 332 330 332 335 336 335 333 333 334 333 332 336 342 346 351 355 358 359 358 357 356 355 353 349 346 345 345 344 342 339 335 330 325 320 311 301 294 288 284 276 264 256 254 254 255 253 252 255 257 255 256
193 193 195 196 197 197 196 196 197 197 198 200 201 201 202 203 206 210 216 226 252 279 297 317 334 338 337 338 340 342 344 342 335 329 329 331 334 337 339 337 335 336 337 335 337 342 348 354 359 1 2 1 0 359 358 356 354 353 351 348 345 341 337 334 333 330 327 324 319 311 302 293 287 283 274 264 257 254 254 253 252 254 255 254 254
192 193 194 195 195 195 195 195 195 194 195 197 197 197 198 199 199 200 204 212 237 276 302 329 343 337 330 330 333 337 338 333 328 328 332 335 338 342 344 341 340 345 347 344 344 350 355 360 3 4 3 3 1 360 359 357 355 354 352 349 346 343 338 333 330 329 330 330 326 320 313 304 293 286 280 274 266 259 255 253 253 253 253 252 253
192 191 192 193 193 194 194 194 193 193 194 194 194 194 196 197 195 191 190 194 210 241 281 319 332 327 322 320 325 332 336 333 331 332 335 339 343 347 348 346 346 350 353 353 355 359 1 3 5 5 4 2 1 0 360 358 356 355 353 349 347 345 342 337 333 331 331 331 327 322 317 311 303 292 280 274 273 269 261 253 249 251 253 252 252
192 190 190 192 192 192 192 192 192 193 194 193 193 193 196 198 197 193 187 187 200 219 224 231 298 311 312 311 320 330 333 332 332 336 340 343 345 348 348 349 353 356 357 358 2 4 5 5 6 6 4 2 1 0 360 359 358 356 353 349 347 346 345 343 339 334 330 326 322 320 318 313 307 300 287 274 271 273 268 258 250 247 250 251 250
193 192 192 193 193 192 190 190 191 191 190 191 192 192 193 195 197 198 193 189 193 198 190 183 237 286 295 306 323 333 333 331 335 341 345 345 347 348 346 347 355 2 3 3 4 6 7 7 7 6 5 3 2 1 360 360 359 356 353 350 348 347 347 346 342 336 331 327 325 325 324 319 312 303 293 282 273 269 267 263 255 247 245 248 249
193 193 194 195 194 192 189 188 188 188 187 189 190 191 191 190 190 194 196 193 188 186 188 199 224 250 271 306 334 341 336 334 338 346 349 348 348 348 346 348 357 4 7 7 6 6 8 7 6 6 5 4 3 2 0 360 359 358 356 353 348 345 347 346 341 335 332 330 329 330 330 327 319 307 298 289 279 270 263 261 260 254 249 247 248
191 192 191 191 191 190 187 185 184 185 186 186 186 188 189 187 186 186 187 186 185 184 189 200 207 204 238 334 351 347 336 335 344 353 357 355 351 349 351 357 4 6 7 6 4 4 6 6 6 6 6 5 4 3 2 2 1 0 359 355 348 345 347 345 338 335 334 331 331 331 332 331 326 316 305 292 283 276 266 259 258 259 255 251 249
189 188 186 185 185 185 184 182 181 183 184 185 185 186 187 187 186 184 183 182 182 180 183 187 181 157 130 42 9 348 333 340 354 360 356 353 353 354 358 4 6 6 6 5 3 1 3 4 5 7 7 6 5 5 4 3 3 2 1 358 352 348 347 343 338 336 336 333 330 330 332 333 330 324 315 300 286 278 271 263 258 257 256 254 251
185 184 183 182 181 181 181 181 181 182 183 184 185 186 186 186 185 182 180 178 176 174 173 168 153 139 132 125 88 14 343 347 1 3 354 352 356 360 2 5 6 5 5 4 2 360 360 1 3 6 6 7 8 7 5 5 4 2 2 360 355 351 349 346 342 340 338 335 332 330 330 333 332 328 320 308 294 283 275 269 263 257 254 253 251
180 181 181 179 178 179 181 182 182 182 182 183 184 184 185 186 182 178 176 173 169 167 162 152 143 137 130 122 103 54 15 8 11 10 5 2 1 360 360 1 3 3 3 2 1 0 359 359 1 4 6 7 8 7 6 5 4 3 2 360 355 351 350 348 344 341 339 336 334 332 332 333 334 332 323 312 301 290 279 272 265 258 253 251 249
178 177 177 178 178 179 181 182 182 182 182 182 183 183 184 183 179 175 173 168 163 159 152 142 135 128 119 106 85 59 36 23 17 12 7 4 2 358 357 358 359 0 1 360 359 358 358 358 359 0 3 5 6 6 6 6 4 3 3 0 354 350 350 349 345 343 341 339 337 336 335 335 336 334 328 317 307 296 284 274 266 257 251 249 248
177 175 176 178 178 178 179 181 182 182 181 181 182 183 183 179 176 173 169 164 160 154 145 138 131 120 103 80 61 49 35 25 18 11 5 3 2 359 357 357 356 357 358 357 355 355 355 356 356 357 359 3 6 6 7 7 6 5 4 1 355 351 351 349 346 345 343 342 340 339 338 338 338 336 331 324 313 300 287 276 267 257 251 250 247
177 175 174 175 176 177 178 179 180 180 180 180 182 183 181 177 173 170 166 163 158 151 144 140 134 120 99 71 53 40 29 23 18 11 7 5 4 2 0 358 357 356 356 354 352 351 351 352 354 356 358 2 5 7 7 7 6 4 3 0 355 352 351 349 347 346 345 344 344 344 342 341 341 339 334 329 319 304 290 279 269 261 255 251 244
178 176 174 174 175 177 178 179 179 179 179 180 181 180 178 175 172 169 166 162 157 151 146 143 135 123 106 81 58 39 28 23 17 13 12 10 7 6 5 3 1 360 357 355 353 351 349 348 350 354 359 3 6 8 9 9 6 4 3 360 355 353 352 350 349 348 346 345 346 347 346 344 344 342 340 336 328 312 298 286 271 260 257 252 241
176 175 174 174 174 175 178 179 179 178 178 179 180 179 176 174 172 169 165 161 156 152 149 146 139 130 118 97 72 47 34 26 20 17 16 13 11 11 10 8 6 4 1 360 358 355 351 348 348 351 357 2 5 9 12 13 11 8 5 1 356 354 354 353 350 349 347 346 347 349 348 348 348 347 344 341 334 319 304 291 273 259 261 256 238
175 174 174 174 173 174 177 178 178 178 179 180 179 178 175 173 172 168 164 161 157 154 153 151 147 142 136 123 104 72 47 33 24 20 18 15 14 14 13 12 10 7 4 4 2 359 356 353 350 350 354 359 4 9 12 14 15 14 9 2 357 356 356 354 352 351 350 349 350 350 350 350 351 350 347 343 337 326 311 297 276 259 262 256 235
174 174 175 174 174 174 176 176 177 179 181 180 179 177 175 173 171 168 163 161 159 156 155 154 152 150 145 134 116 91 62 40 28 22 18 16 16 15 13 12 11 9 7 5 4 3 1 358 354 351 351 354 1 8 11 13 16 15 10 3 360 358 357 356 355 354 354 354 354 353 352 353 355 354 350 345 339 330 317 302 282 263 259 249 231
173 175 176 175 174 175 176 176 177 179 180 179 178 177 175 173 170 167 164 161 159 157 157 156 154 152 146 134 120 101 68 43 31 23 17 15 15 14 12 11 10 8 8 7 4 3 4 2 358 356 352 352 359 6 10 13 16 15 10 4 1 359 358 359 359 358 359 0 0 357 356 357 358 358 356 350 345 338 325 307 288 269 257 242 225
173 174 175 175 176 176 176 177 179 180 179 178 177 176 175 173 169 166 164 162 159 159 159 158 155 153 147 140 131 112 71 40 28 22 16 14 13 12 10 10 8 6 6 6 5 4 3 3 2 360 356 354 358 4 7 11 16 15 9 5 1 358 359 1 2 1 3 6 6 3 2 2 3 4 3 359 353 349 337 318 301 279 255 236 220
172 173 174 175 177 178 179 180 181 180 179 178 177 176 175 173 169 166 165 163 161 162 161 159 158 156 151 149 147 123 71 35 22 16 10 10 11 9 8 8 6 3 3 4 4 4 3 2 2 1 358 355 358 2 4 9 16 15 10 5 1 357 359 3 4 4 6 9 9 7 7 7 7 10 11 8 3 359 350 336 322 293 251 230 215
171 172 173 174 176 178 180 181 182 180 179 179 178 176 175 172 169 167 167 165 163 164 163 161 162 162 159 160 162 131 58 23 14 10 5 5 7 6 5 4 2 0 1 1 1 2 2 0 360 1 360 357 357 359 2 8 15 14 10 6 2 358 359 4 5 6 9 12 12 11 11 10 10 14 16 14 11 7 2 355 348 320 241 220 210
168 171 172 174 176 179 180 181 182 181 180 180 179 177 176 173 170 169 168 166 166 167 166 165 168 169 168 172 173 137 30 4 3 1 360 2 3 1 360 360 357 356 358 359 358 360 0 359 359 1 359 357 357 358 1 8 14 13 10 9 5 359 359 4 6 7 11 15 14 13 14 13 13 16 19 18 15 13 10 8 10 12 207 197 196